{"data":{"norad_id":58477,"epoch":"2026-05-24T23:11:59.564832Z","epoch_age_seconds":73786,"freshness":"FRESH","line1":"1 58477U 23186E   26144.96666163  .00000077  00000+0  12316-4 0  9991","line2":"2 58477  43.0041 341.4200 0001307 269.6536  90.4166 15.27570376137692","mean_motion":15.27570376,"eccentricity":0.0001307,"inclination_deg":43.0041,"raan_deg":341.42,"arg_perigee_deg":269.6536,"mean_anomaly_deg":90.4166,"bstar":1.2316e-5,"rev_number":13769,"period_min":94.267342613091,"perigee_km":482.18115311992,"apogee_km":483.97467469841,"semimajor_km":6861.2149139092,"source":"CELESTRAK","updated_at":"2026-05-25T13:38:18.650095Z"}}